Year,Month,Day,Hour,Minute,Value (Times are PST for temperature in C)
2015,06,16,00,00,19.40
2015,06,16,00,01,19.40
2015,06,16,00,02,19.40
2015,06,16,00,03,19.40
2015,06,16,00,04,19.40
2015,06,16,00,05,19.50
2015,06,16,00,06,19.50
2015,06,16,00,07,19.50
2015,06,16,00,08,19.50
2015,06,16,00,09,19.50
2015,06,16,00,10,19.50
2015,06,16,00,11,19.50
2015,06,16,00,12,19.50
2015,06,16,00,13,19.50
2015,06,16,00,14,19.50
2015,06,16,00,15,19.40
2015,06,16,00,16,19.40
2015,06,16,00,17,19.40
2015,06,16,00,18,19.40
2015,06,16,00,19,19.40
2015,06,16,00,20,19.40
2015,06,16,00,21,19.40
2015,06,16,00,22,19.30
2015,06,16,00,23,19.30
2015,06,16,00,24,19.30
2015,06,16,00,25,19.30
2015,06,16,00,26,19.30
2015,06,16,00,27,19.30
2015,06,16,00,28,19.30
2015,06,16,00,29,19.30
2015,06,16,00,30,19.30
2015,06,16,00,31,19.30
2015,06,16,00,32,19.30
2015,06,16,00,33,19.30
2015,06,16,00,34,19.30
2015,06,16,00,35,19.30
2015,06,16,00,36,19.30
2015,06,16,00,37,19.30
2015,06,16,00,38,19.30
2015,06,16,00,39,19.30
2015,06,16,00,40,19.30
2015,06,16,00,41,19.30
2015,06,16,00,42,19.30
2015,06,16,00,43,19.30
2015,06,16,00,44,19.30
2015,06,16,00,45,19.30
2015,06,16,00,46,19.30
2015,06,16,00,47,19.30
2015,06,16,00,48,19.30
2015,06,16,00,49,19.30
2015,06,16,00,50,19.30
2015,06,16,00,51,19.30
2015,06,16,00,52,19.30
2015,06,16,00,53,19.30
2015,06,16,00,54,19.30
2015,06,16,00,55,19.30
2015,06,16,00,56,19.30
2015,06,16,00,57,19.30
2015,06,16,00,58,19.30
2015,06,16,00,59,19.30
2015,06,16,01,00,19.30
2015,06,16,01,01,19.30
2015,06,16,01,02,19.20
2015,06,16,01,03,19.20
2015,06,16,01,04,19.20
2015,06,16,01,05,19.20
2015,06,16,01,06,19.10
2015,06,16,01,07,19.10
2015,06,16,01,08,19.10
2015,06,16,01,09,19.10
2015,06,16,01,10,19.10
2015,06,16,01,11,19.00
2015,06,16,01,12,19.00
2015,06,16,01,13,19.00
2015,06,16,01,14,18.90
2015,06,16,01,15,18.90
2015,06,16,01,16,18.90
2015,06,16,01,17,18.90
2015,06,16,01,18,18.90
2015,06,16,01,19,18.80
2015,06,16,01,20,18.80
2015,06,16,01,21,18.80
2015,06,16,01,22,18.80
2015,06,16,01,23,18.70
2015,06,16,01,24,18.70
2015,06,16,01,25,18.70
2015,06,16,01,26,18.70
2015,06,16,01,27,18.70
2015,06,16,01,28,18.70
2015,06,16,01,29,18.60
2015,06,16,01,30,18.60
2015,06,16,01,31,18.60
2015,06,16,01,32,18.60
2015,06,16,01,33,18.60
2015,06,16,01,34,18.60
2015,06,16,01,35,18.50
2015,06,16,01,36,18.50
2015,06,16,01,37,18.40
2015,06,16,01,38,18.40
2015,06,16,01,39,18.40
2015,06,16,01,40,18.40
2015,06,16,01,41,18.40
2015,06,16,01,42,18.30
2015,06,16,01,43,18.30
2015,06,16,01,44,18.30
2015,06,16,01,45,18.30
2015,06,16,01,46,18.30
2015,06,16,01,47,18.30
2015,06,16,01,48,18.30
2015,06,16,01,49,18.30
2015,06,16,01,50,18.30
2015,06,16,01,51,18.40
2015,06,16,01,52,18.40
2015,06,16,01,53,18.40
2015,06,16,01,54,18.40
2015,06,16,01,55,18.30
2015,06,16,01,56,18.30
2015,06,16,01,57,18.30
2015,06,16,01,58,18.30
2015,06,16,01,59,18.30
2015,06,16,02,00,18.30
2015,06,16,02,01,18.30
2015,06,16,02,02,18.30
2015,06,16,02,03,18.30
2015,06,16,02,04,18.30
2015,06,16,02,05,18.30
2015,06,16,02,06,18.30
2015,06,16,02,07,18.20
2015,06,16,02,08,18.20
2015,06,16,02,09,18.20
2015,06,16,02,10,18.20
2015,06,16,02,11,18.20
2015,06,16,02,12,18.20
2015,06,16,02,13,18.20
2015,06,16,02,14,18.20
2015,06,16,02,15,18.20
2015,06,16,02,16,18.20
2015,06,16,02,17,18.20
2015,06,16,02,18,18.20
2015,06,16,02,19,18.10
2015,06,16,02,20,18.10
2015,06,16,02,21,18.00
2015,06,16,02,22,18.00
2015,06,16,02,23,17.90
2015,06,16,02,24,17.90
2015,06,16,02,25,17.90
2015,06,16,02,26,17.80
2015,06,16,02,27,17.80
2015,06,16,02,28,17.80
2015,06,16,02,29,17.70
2015,06,16,02,30,17.70
2015,06,16,02,31,17.60
2015,06,16,02,32,17.60
2015,06,16,02,33,17.50
2015,06,16,02,34,17.50
2015,06,16,02,35,17.40
2015,06,16,02,36,17.40
2015,06,16,02,37,17.30
2015,06,16,02,38,17.30
2015,06,16,02,39,17.20
2015,06,16,02,40,17.20
2015,06,16,02,41,17.10
2015,06,16,02,42,17.10
2015,06,16,02,43,17.00
2015,06,16,02,44,17.00
2015,06,16,02,45,16.90
2015,06,16,02,46,16.90
2015,06,16,02,47,16.80
2015,06,16,02,48,16.80
2015,06,16,02,49,16.70
2015,06,16,02,50,16.70
2015,06,16,02,51,16.70
2015,06,16,02,52,16.70
2015,06,16,02,53,16.60
2015,06,16,02,54,16.60
2015,06,16,02,55,16.60
2015,06,16,02,56,16.50
2015,06,16,02,57,16.50
2015,06,16,02,58,16.40
2015,06,16,02,59,16.40
2015,06,16,03,00,16.40
2015,06,16,03,01,16.40
2015,06,16,03,02,16.30
2015,06,16,03,03,16.40
2015,06,16,03,04,16.40
2015,06,16,03,05,16.40
2015,06,16,03,06,16.40
2015,06,16,03,07,16.40
2015,06,16,03,08,16.40
2015,06,16,03,09,16.40
2015,06,16,03,10,16.50
2015,06,16,03,11,16.50
2015,06,16,03,12,16.60
2015,06,16,03,13,16.50
2015,06,16,03,14,16.30
2015,06,16,03,15,16.10
2015,06,16,03,16,15.90
2015,06,16,03,17,15.80
2015,06,16,03,18,15.70
2015,06,16,03,19,15.50
2015,06,16,03,20,15.40
2015,06,16,03,21,15.40
2015,06,16,03,22,15.30
2015,06,16,03,23,15.30
2015,06,16,03,24,15.30
2015,06,16,03,25,15.20
2015,06,16,03,26,15.20
2015,06,16,03,27,15.20
2015,06,16,03,28,15.10
2015,06,16,03,29,15.10
2015,06,16,03,30,15.10
2015,06,16,03,31,15.10
2015,06,16,03,32,15.10
2015,06,16,03,33,15.00
2015,06,16,03,34,15.00
2015,06,16,03,35,15.00
2015,06,16,03,36,15.00
2015,06,16,03,37,15.00
2015,06,16,03,38,15.00
2015,06,16,03,39,15.00
2015,06,16,03,40,15.00
2015,06,16,03,41,15.00
2015,06,16,03,42,14.90
2015,06,16,03,43,14.90
2015,06,16,03,44,14.80
2015,06,16,03,45,14.70
2015,06,16,03,46,14.60
2015,06,16,03,47,14.50
2015,06,16,03,48,14.50
2015,06,16,03,49,14.40
2015,06,16,03,50,14.40
2015,06,16,03,51,14.40
2015,06,16,03,52,14.40
2015,06,16,03,53,14.40
2015,06,16,03,54,14.40
2015,06,16,03,55,14.40
2015,06,16,03,56,14.40
2015,06,16,03,57,14.40
2015,06,16,03,58,14.40
2015,06,16,03,59,14.40
2015,06,16,04,00,14.40
2015,06,16,04,01,14.40
2015,06,16,04,02,14.40
2015,06,16,04,03,14.50
2015,06,16,04,04,14.50
2015,06,16,04,05,14.50
2015,06,16,04,06,14.50
2015,06,16,04,07,14.60
2015,06,16,04,08,14.60
2015,06,16,04,09,14.60
2015,06,16,04,10,14.60
2015,06,16,04,11,14.60
2015,06,16,04,12,14.70
2015,06,16,04,13,14.70
2015,06,16,04,14,14.70
2015,06,16,04,15,14.70
2015,06,16,04,16,14.70
2015,06,16,04,17,14.70
2015,06,16,04,18,14.70
2015,06,16,04,19,14.70
2015,06,16,04,20,14.70
2015,06,16,04,21,14.70
2015,06,16,04,22,14.80
2015,06,16,04,23,14.80
2015,06,16,04,24,14.80
2015,06,16,04,25,14.80
2015,06,16,04,26,14.80
2015,06,16,04,27,14.80
2015,06,16,04,28,14.80
2015,06,16,04,29,14.80
2015,06,16,04,30,14.80
2015,06,16,04,31,14.80
2015,06,16,04,32,14.80
2015,06,16,04,33,14.80
2015,06,16,04,34,14.80
2015,06,16,04,35,14.80
2015,06,16,04,36,14.80
2015,06,16,04,37,14.80
2015,06,16,04,38,14.80
2015,06,16,04,39,14.80
2015,06,16,04,40,14.80
2015,06,16,04,41,14.70
2015,06,16,04,42,14.70
2015,06,16,04,43,14.80
2015,06,16,04,44,14.80
2015,06,16,04,45,14.80
2015,06,16,04,46,14.70
2015,06,16,04,47,14.70
2015,06,16,04,48,14.70
2015,06,16,04,49,14.70
2015,06,16,04,50,14.70
2015,06,16,04,51,14.70
2015,06,16,04,52,14.70
2015,06,16,04,53,14.70
2015,06,16,04,54,14.60
2015,06,16,04,55,14.60
2015,06,16,04,56,14.60
2015,06,16,04,57,14.60
2015,06,16,04,58,14.60
2015,06,16,04,59,14.50
2015,06,16,05,00,14.50
2015,06,16,05,01,14.40
2015,06,16,05,02,14.30
2015,06,16,05,03,14.30
2015,06,16,05,04,14.20
2015,06,16,05,05,14.10
2015,06,16,05,06,14.00
2015,06,16,05,07,13.90
2015,06,16,05,08,13.70
2015,06,16,05,09,13.60
2015,06,16,05,10,13.50
2015,06,16,05,11,13.50
2015,06,16,05,12,13.40
2015,06,16,05,13,13.30
2015,06,16,05,14,13.30
2015,06,16,05,15,13.30
2015,06,16,05,16,13.20
2015,06,16,05,17,13.20
2015,06,16,05,18,13.20
2015,06,16,05,19,13.20
2015,06,16,05,20,13.10
2015,06,16,05,21,13.10
2015,06,16,05,22,13.10
2015,06,16,05,23,13.10
2015,06,16,05,24,13.00
2015,06,16,05,25,13.00
2015,06,16,05,26,13.00
2015,06,16,05,27,12.90
2015,06,16,05,28,12.90
2015,06,16,05,29,12.90
2015,06,16,05,30,12.80
2015,06,16,05,31,12.80
2015,06,16,05,32,12.80
2015,06,16,05,33,12.70
2015,06,16,05,34,12.70
2015,06,16,05,35,12.70
2015,06,16,05,36,12.70
2015,06,16,05,37,12.60
2015,06,16,05,38,12.60
2015,06,16,05,39,12.60
2015,06,16,05,40,12.60
2015,06,16,05,41,12.60
2015,06,16,05,42,12.60
2015,06,16,05,43,12.60
2015,06,16,05,44,12.60
2015,06,16,05,45,12.70
2015,06,16,05,46,12.70
2015,06,16,05,47,12.70
2015,06,16,05,48,12.70
2015,06,16,05,49,12.80
2015,06,16,05,50,12.80
2015,06,16,05,51,12.80
2015,06,16,05,52,12.90
2015,06,16,05,53,12.90
2015,06,16,05,54,12.90
2015,06,16,05,55,13.00
2015,06,16,05,56,13.00
2015,06,16,05,57,13.10
2015,06,16,05,58,13.10
2015,06,16,05,59,13.10
2015,06,16,06,00,13.20
2015,06,16,06,01,13.20
2015,06,16,06,02,13.20
2015,06,16,06,03,13.20
2015,06,16,06,04,13.20
2015,06,16,06,05,13.20
2015,06,16,06,06,13.20
2015,06,16,06,07,13.20
2015,06,16,06,08,13.20
2015,06,16,06,09,13.20
2015,06,16,06,10,13.20
2015,06,16,06,11,13.20
2015,06,16,06,12,13.20
2015,06,16,06,13,13.20
2015,06,16,06,14,13.10
2015,06,16,06,15,13.20
2015,06,16,06,16,13.20
2015,06,16,06,17,13.20
2015,06,16,06,18,13.20
2015,06,16,06,19,13.20
2015,06,16,06,20,13.20
2015,06,16,06,21,13.20
2015,06,16,06,22,13.20
2015,06,16,06,23,13.20
2015,06,16,06,24,13.20
2015,06,16,06,25,13.20
2015,06,16,06,26,13.30
2015,06,16,06,27,13.30
2015,06,16,06,28,13.30
2015,06,16,06,29,13.30
2015,06,16,06,30,13.30
2015,06,16,06,31,13.30
2015,06,16,06,32,13.20
2015,06,16,06,33,13.20
2015,06,16,06,34,13.20
2015,06,16,06,35,13.10
2015,06,16,06,36,13.10
2015,06,16,06,37,13.00
2015,06,16,06,38,13.00
2015,06,16,06,39,13.00
2015,06,16,06,40,13.00
2015,06,16,06,41,13.00
2015,06,16,06,42,13.00
2015,06,16,06,43,13.00
2015,06,16,06,44,13.10
2015,06,16,06,45,13.20
2015,06,16,06,46,13.30
2015,06,16,06,47,13.40
2015,06,16,06,48,13.50
2015,06,16,06,49,13.60
2015,06,16,06,50,13.60
2015,06,16,06,51,13.60
2015,06,16,06,52,13.70
2015,06,16,06,53,13.70
2015,06,16,06,54,13.70
2015,06,16,06,55,13.80
2015,06,16,06,56,13.80
2015,06,16,06,57,13.80
2015,06,16,06,58,13.90
2015,06,16,06,59,13.90
2015,06,16,07,00,14.00
2015,06,16,07,01,14.00
2015,06,16,07,02,14.10
2015,06,16,07,03,14.20
2015,06,16,07,04,14.30
2015,06,16,07,05,14.30
2015,06,16,07,06,14.40
2015,06,16,07,07,14.50
2015,06,16,07,08,14.50
2015,06,16,07,09,14.60
2015,06,16,07,10,14.70
2015,06,16,07,11,14.70
2015,06,16,07,12,14.80
2015,06,16,07,13,14.80
2015,06,16,07,14,14.90
2015,06,16,07,15,14.90
2015,06,16,07,16,15.00
2015,06,16,07,17,15.10
2015,06,16,07,18,15.20
2015,06,16,07,19,15.20
2015,06,16,07,20,15.20
2015,06,16,07,21,15.20
2015,06,16,07,22,15.20
2015,06,16,07,23,15.20
2015,06,16,07,24,15.20
2015,06,16,07,25,15.20
2015,06,16,07,26,15.10
2015,06,16,07,27,15.10
2015,06,16,07,28,15.10
2015,06,16,07,29,15.10
2015,06,16,07,30,15.10
2015,06,16,07,31,15.00
2015,06,16,07,32,15.00
2015,06,16,07,33,14.90
2015,06,16,07,34,14.90
2015,06,16,07,35,14.90
2015,06,16,07,36,15.00
2015,06,16,07,37,15.10
2015,06,16,07,38,15.10
2015,06,16,07,39,15.20
2015,06,16,07,40,15.10
2015,06,16,07,41,15.10
2015,06,16,07,42,15.10
2015,06,16,07,43,15.10
2015,06,16,07,44,15.10
2015,06,16,07,45,15.20
2015,06,16,07,46,15.20
2015,06,16,07,47,15.10
2015,06,16,07,48,15.00
2015,06,16,07,49,14.80
2015,06,16,07,50,14.70
2015,06,16,07,51,14.60
2015,06,16,07,52,14.60
2015,06,16,07,53,14.60
2015,06,16,07,54,14.60
2015,06,16,07,55,14.60
2015,06,16,07,56,14.60
2015,06,16,07,57,14.70
2015,06,16,07,58,14.70
2015,06,16,07,59,14.70
2015,06,16,08,00,14.60
2015,06,16,08,01,14.70
2015,06,16,08,02,14.60
2015,06,16,08,03,14.50
2015,06,16,08,04,14.30
2015,06,16,08,05,14.20
2015,06,16,08,06,14.10
2015,06,16,08,07,14.00
2015,06,16,08,08,14.00
2015,06,16,08,09,14.00
2015,06,16,08,10,13.90
2015,06,16,08,11,13.90
2015,06,16,08,12,13.90
2015,06,16,08,13,13.90
2015,06,16,08,14,13.90
2015,06,16,08,15,13.90
2015,06,16,08,16,13.80
2015,06,16,08,17,13.80
2015,06,16,08,18,13.80
2015,06,16,08,19,13.80
2015,06,16,08,20,13.80
2015,06,16,08,21,13.90
2015,06,16,08,22,13.90
2015,06,16,08,23,13.90
2015,06,16,08,24,13.90
2015,06,16,08,25,14.00
2015,06,16,08,26,14.00
2015,06,16,08,27,14.10
2015,06,16,08,28,14.10
2015,06,16,08,29,14.20
2015,06,16,08,30,14.20
2015,06,16,08,31,14.20
2015,06,16,08,32,14.20
2015,06,16,08,33,14.20
2015,06,16,08,34,14.20
2015,06,16,08,35,14.20
2015,06,16,08,36,14.30
2015,06,16,08,37,14.30
2015,06,16,08,38,14.30
2015,06,16,08,39,14.30
2015,06,16,08,40,14.40
2015,06,16,08,41,14.40
2015,06,16,08,42,14.40
2015,06,16,08,43,14.50
2015,06,16,08,44,14.50
2015,06,16,08,45,14.50
2015,06,16,08,46,14.60
2015,06,16,08,47,14.60
2015,06,16,08,48,14.60
2015,06,16,08,49,14.60
2015,06,16,08,50,14.60
2015,06,16,08,51,14.60
2015,06,16,08,52,14.60
2015,06,16,08,53,14.70
2015,06,16,08,54,14.70
2015,06,16,08,55,14.80
2015,06,16,08,56,14.80
2015,06,16,08,57,14.80
2015,06,16,08,58,14.90
2015,06,16,08,59,14.90
2015,06,16,09,00,14.90
2015,06,16,09,01,14.90
2015,06,16,09,02,15.00
2015,06,16,09,03,15.10
2015,06,16,09,04,15.20
2015,06,16,09,05,15.20
2015,06,16,09,06,15.20
2015,06,16,09,07,15.20
2015,06,16,09,08,15.20
2015,06,16,09,09,15.30
2015,06,16,09,10,15.30
2015,06,16,09,11,15.30
2015,06,16,09,12,15.40
2015,06,16,09,13,15.40
2015,06,16,09,14,15.50
2015,06,16,09,15,15.50
2015,06,16,09,16,15.60
2015,06,16,09,17,15.60
2015,06,16,09,18,15.60
2015,06,16,09,19,15.60
2015,06,16,09,20,15.60
2015,06,16,09,21,15.60
2015,06,16,09,22,15.60
2015,06,16,09,23,15.60
2015,06,16,09,24,15.60
2015,06,16,09,25,15.60
2015,06,16,09,26,15.60
2015,06,16,09,27,15.60
2015,06,16,09,28,15.60
2015,06,16,09,29,15.60
2015,06,16,09,30,15.60
2015,06,16,09,31,15.60
2015,06,16,09,32,15.60
2015,06,16,09,33,15.60
2015,06,16,09,34,15.60
2015,06,16,09,35,15.60
2015,06,16,09,36,15.60
2015,06,16,09,37,15.60
2015,06,16,09,38,15.60
2015,06,16,09,39,15.60
2015,06,16,09,40,15.60
2015,06,16,09,41,15.60
2015,06,16,09,42,15.70
2015,06,16,09,43,15.70
2015,06,16,09,44,15.70
2015,06,16,09,45,15.70
2015,06,16,09,46,15.70
2015,06,16,09,47,15.70
2015,06,16,09,48,15.70
2015,06,16,09,49,15.70
2015,06,16,09,50,15.80
2015,06,16,09,51,15.80
2015,06,16,09,52,15.80
2015,06,16,09,53,15.80
2015,06,16,09,54,15.80
2015,06,16,09,55,15.80
2015,06,16,09,56,15.80
2015,06,16,09,57,15.80
2015,06,16,09,58,15.80
2015,06,16,09,59,15.80
2015,06,16,10,00,15.80
2015,06,16,10,01,15.70
2015,06,16,10,02,15.70
2015,06,16,10,03,15.70
2015,06,16,10,04,15.60
2015,06,16,10,05,15.60
2015,06,16,10,06,15.50
2015,06,16,10,07,15.60
2015,06,16,10,08,15.60
2015,06,16,10,09,15.60
2015,06,16,10,10,15.60
2015,06,16,10,11,15.60
2015,06,16,10,12,15.70
2015,06,16,10,13,15.60
2015,06,16,10,14,15.60
2015,06,16,10,15,15.60
2015,06,16,10,16,15.60
2015,06,16,10,17,15.60
2015,06,16,10,18,15.60
2015,06,16,10,19,15.70
2015,06,16,10,20,15.70
2015,06,16,10,21,15.70
2015,06,16,10,22,15.70
2015,06,16,10,23,15.70
2015,06,16,10,24,15.80
2015,06,16,10,25,15.70
2015,06,16,10,26,15.70
2015,06,16,10,27,15.70
2015,06,16,10,28,15.70
2015,06,16,10,29,15.70
2015,06,16,10,30,15.70
2015,06,16,10,31,15.70
2015,06,16,10,32,15.80
2015,06,16,10,33,15.80
2015,06,16,10,34,15.80
2015,06,16,10,35,15.80
2015,06,16,10,36,15.80
2015,06,16,10,37,15.70
2015,06,16,10,38,15.70
2015,06,16,10,39,15.70
2015,06,16,10,40,15.80
2015,06,16,10,41,15.80
2015,06,16,10,42,15.90
2015,06,16,10,43,15.90
2015,06,16,10,44,16.00
2015,06,16,10,45,16.10
2015,06,16,10,46,16.10
2015,06,16,10,47,16.10
2015,06,16,10,48,16.10
2015,06,16,10,49,16.10
2015,06,16,10,50,16.20
2015,06,16,10,51,16.20
2015,06,16,10,52,16.20
2015,06,16,10,53,16.20
2015,06,16,10,54,16.30
2015,06,16,10,55,16.50
2015,06,16,10,56,16.60
2015,06,16,10,57,16.70
2015,06,16,10,58,16.80
2015,06,16,10,59,16.80
2015,06,16,11,00,16.80
2015,06,16,11,01,16.80
2015,06,16,11,02,16.80
2015,06,16,11,03,16.80
2015,06,16,11,04,16.80
2015,06,16,11,05,16.80
2015,06,16,11,06,16.80
2015,06,16,11,07,16.70
2015,06,16,11,08,16.70
2015,06,16,11,09,16.80
2015,06,16,11,10,16.80
2015,06,16,11,11,16.80
2015,06,16,11,12,16.90
2015,06,16,11,13,16.90
2015,06,16,11,14,17.00
2015,06,16,11,15,17.00
2015,06,16,11,16,17.00
2015,06,16,11,17,17.10
2015,06,16,11,18,17.10
2015,06,16,11,19,17.10
2015,06,16,11,20,17.00
2015,06,16,11,21,16.90
2015,06,16,11,22,16.90
2015,06,16,11,23,16.80
2015,06,16,11,24,16.80
2015,06,16,11,25,16.70
2015,06,16,11,26,16.60
2015,06,16,11,27,16.50
2015,06,16,11,28,16.40
2015,06,16,11,29,16.30
2015,06,16,11,30,16.30
2015,06,16,11,31,16.30
2015,06,16,11,32,16.30
2015,06,16,11,33,16.40
2015,06,16,11,34,16.40
2015,06,16,11,35,16.50
2015,06,16,11,36,16.50
2015,06,16,11,37,16.70
2015,06,16,11,38,16.80
2015,06,16,11,39,16.90
2015,06,16,11,40,16.90
2015,06,16,11,41,16.90
2015,06,16,11,42,16.90
2015,06,16,11,43,16.90
2015,06,16,11,44,16.90
2015,06,16,11,45,16.90
2015,06,16,11,46,16.90
2015,06,16,11,47,16.90
2015,06,16,11,48,17.00
2015,06,16,11,49,17.00
2015,06,16,11,50,17.00
2015,06,16,11,51,16.90
2015,06,16,11,52,16.90
2015,06,16,11,53,17.00
2015,06,16,11,54,17.00
2015,06,16,11,55,17.10
2015,06,16,11,56,17.10
2015,06,16,11,57,17.20
2015,06,16,11,58,17.20
2015,06,16,11,59,17.20
2015,06,16,12,00,17.20
2015,06,16,12,01,17.20
2015,06,16,12,02,17.20
2015,06,16,12,03,17.30
2015,06,16,12,04,17.30
2015,06,16,12,05,17.40
2015,06,16,12,06,17.40
2015,06,16,12,07,17.40
2015,06,16,12,08,17.40
2015,06,16,12,09,17.40
2015,06,16,12,10,17.40
2015,06,16,12,11,17.40
2015,06,16,12,12,17.40
2015,06,16,12,13,17.40
2015,06,16,12,14,17.30
2015,06,16,12,15,17.20
2015,06,16,12,16,17.20
2015,06,16,12,17,17.30
2015,06,16,12,18,17.30
2015,06,16,12,19,17.30
2015,06,16,12,20,17.30
2015,06,16,12,21,17.30
2015,06,16,12,22,17.30
2015,06,16,12,23,17.30
2015,06,16,12,24,17.30
2015,06,16,12,25,17.40
2015,06,16,12,26,17.40
2015,06,16,12,27,17.30
2015,06,16,12,28,17.30
2015,06,16,12,29,17.40
2015,06,16,12,30,17.40
2015,06,16,12,31,17.40
2015,06,16,12,32,17.40
2015,06,16,12,33,17.50
2015,06,16,12,34,17.50
2015,06,16,12,35,17.50
2015,06,16,12,36,17.50
2015,06,16,12,37,17.60
2015,06,16,12,38,17.60
2015,06,16,12,39,17.70
2015,06,16,12,40,17.80
2015,06,16,12,41,17.90
2015,06,16,12,42,18.00
2015,06,16,12,43,18.10
2015,06,16,12,44,18.20
2015,06,16,12,45,18.20
2015,06,16,12,46,18.30
2015,06,16,12,47,18.30
2015,06,16,12,48,18.30
2015,06,16,12,49,18.20
2015,06,16,12,50,18.20
2015,06,16,12,51,18.20
2015,06,16,12,52,18.20
2015,06,16,12,53,18.10
2015,06,16,12,54,18.00
2015,06,16,12,55,18.00
2015,06,16,12,56,18.00
2015,06,16,12,57,18.00
2015,06,16,12,58,18.10
2015,06,16,12,59,18.10
2015,06,16,13,00,18.00
2015,06,16,13,01,18.00
2015,06,16,13,02,17.90
2015,06,16,13,03,17.90
2015,06,16,13,04,17.90
2015,06,16,13,05,18.00
2015,06,16,13,06,18.00
2015,06,16,13,07,18.10
2015,06,16,13,08,18.00
2015,06,16,13,09,18.00
2015,06,16,13,10,18.00
2015,06,16,13,11,17.90
2015,06,16,13,12,18.00
2015,06,16,13,13,18.00
2015,06,16,13,14,18.10
2015,06,16,13,15,18.00
2015,06,16,13,16,18.00
2015,06,16,13,17,18.00
2015,06,16,13,18,18.10
2015,06,16,13,19,18.10
2015,06,16,13,20,18.10
2015,06,16,13,21,18.10
2015,06,16,13,22,18.10
2015,06,16,13,23,18.00
2015,06,16,13,24,18.00
2015,06,16,13,25,18.10
2015,06,16,13,26,18.10
2015,06,16,13,27,18.20
2015,06,16,13,28,18.20
2015,06,16,13,29,18.30
2015,06,16,13,30,18.30
2015,06,16,13,31,18.20
2015,06,16,13,32,18.20
2015,06,16,13,33,18.20
2015,06,16,13,34,18.20
2015,06,16,13,35,18.20
2015,06,16,13,36,18.20
2015,06,16,13,37,18.20
2015,06,16,13,38,18.20
2015,06,16,13,39,18.30
2015,06,16,13,40,18.30
2015,06,16,13,41,18.50
2015,06,16,13,42,18.60
2015,06,16,13,43,18.80
2015,06,16,13,44,19.00
2015,06,16,13,45,19.10
2015,06,16,13,46,19.10
2015,06,16,13,47,19.10
2015,06,16,13,48,19.10
2015,06,16,13,49,19.10
2015,06,16,13,50,19.10
2015,06,16,13,51,19.10
2015,06,16,13,52,19.10
2015,06,16,13,53,19.10
2015,06,16,13,54,19.10
2015,06,16,13,55,19.00
2015,06,16,13,56,19.00
2015,06,16,13,57,19.00
2015,06,16,13,58,19.00
2015,06,16,13,59,18.90
2015,06,16,14,00,18.80
2015,06,16,14,01,18.70
2015,06,16,14,02,18.60
2015,06,16,14,03,18.50
2015,06,16,14,04,18.40
2015,06,16,14,05,18.40
2015,06,16,14,06,18.40
2015,06,16,14,07,18.40
2015,06,16,14,08,18.50
2015,06,16,14,09,18.50
2015,06,16,14,10,18.50
2015,06,16,14,11,18.60
2015,06,16,14,12,18.60
2015,06,16,14,13,18.70
2015,06,16,14,14,18.70
2015,06,16,14,15,18.80
2015,06,16,14,16,18.90
2015,06,16,14,17,18.90
2015,06,16,14,18,18.90
2015,06,16,14,19,18.90
2015,06,16,14,20,18.80
2015,06,16,14,21,18.80
2015,06,16,14,22,18.80
2015,06,16,14,23,18.80
2015,06,16,14,24,18.70
2015,06,16,14,25,18.70
2015,06,16,14,26,18.60
2015,06,16,14,27,18.50
2015,06,16,14,28,18.40
2015,06,16,14,29,18.40
2015,06,16,14,30,18.30
2015,06,16,14,31,18.30
2015,06,16,14,32,18.20
2015,06,16,14,33,18.20
2015,06,16,14,34,18.20
2015,06,16,14,35,18.20
2015,06,16,14,36,18.10
2015,06,16,14,37,18.00
2015,06,16,14,38,17.90
2015,06,16,14,39,17.90
2015,06,16,14,40,17.90
2015,06,16,14,41,17.90
2015,06,16,14,42,17.90
2015,06,16,14,43,17.80
2015,06,16,14,44,17.80
2015,06,16,14,45,17.70
2015,06,16,14,46,17.70
2015,06,16,14,47,17.70
2015,06,16,14,48,17.70
2015,06,16,14,49,17.70
2015,06,16,14,50,17.70
2015,06,16,14,51,17.70
2015,06,16,14,52,17.80
2015,06,16,14,53,17.80
2015,06,16,14,54,17.90
2015,06,16,14,55,17.90
2015,06,16,14,56,17.90
2015,06,16,14,57,17.90
2015,06,16,14,58,18.00
2015,06,16,14,59,18.00
2015,06,16,15,00,17.90
2015,06,16,15,01,17.80
2015,06,16,15,02,17.80
2015,06,16,15,03,17.80
2015,06,16,15,04,17.70
2015,06,16,15,05,17.60
2015,06,16,15,06,17.50
2015,06,16,15,07,17.50
2015,06,16,15,08,17.50
2015,06,16,15,09,17.50
2015,06,16,15,10,17.40
2015,06,16,15,11,17.40
2015,06,16,15,12,17.50
2015,06,16,15,13,17.50
2015,06,16,15,14,17.60
2015,06,16,15,15,17.60
2015,06,16,15,16,17.60
2015,06,16,15,17,17.60
2015,06,16,15,18,17.70
2015,06,16,15,19,17.70
2015,06,16,15,20,17.80
2015,06,16,15,21,17.90
2015,06,16,15,22,17.90
2015,06,16,15,23,18.00
2015,06,16,15,24,18.00
2015,06,16,15,25,18.00
2015,06,16,15,26,18.10
2015,06,16,15,27,18.10
2015,06,16,15,28,18.10
2015,06,16,15,29,18.10
2015,06,16,15,30,18.10
2015,06,16,15,31,18.10
2015,06,16,15,32,18.10
2015,06,16,15,33,18.10
2015,06,16,15,34,18.10
2015,06,16,15,35,18.10
2015,06,16,15,36,18.10
2015,06,16,15,37,18.20
2015,06,16,15,38,18.20
2015,06,16,15,39,18.30
2015,06,16,15,40,18.30
2015,06,16,15,41,18.40
2015,06,16,15,42,18.50
2015,06,16,15,43,18.60
2015,06,16,15,44,18.70
2015,06,16,15,45,18.70
2015,06,16,15,46,18.70
2015,06,16,15,47,18.60
2015,06,16,15,48,18.50
2015,06,16,15,49,18.40
2015,06,16,15,50,18.30
2015,06,16,15,51,18.30
2015,06,16,15,52,18.30
2015,06,16,15,53,18.30
2015,06,16,15,54,18.30
2015,06,16,15,55,18.30
2015,06,16,15,56,18.30
2015,06,16,15,57,18.30
2015,06,16,15,58,18.30
2015,06,16,15,59,18.30
2015,06,16,16,00,18.20
2015,06,16,16,01,18.20
2015,06,16,16,02,18.20
2015,06,16,16,03,18.30
2015,06,16,16,04,18.30
2015,06,16,16,05,18.40
2015,06,16,16,06,18.40
2015,06,16,16,07,18.50
2015,06,16,16,08,18.50
2015,06,16,16,09,18.50
2015,06,16,16,10,18.60
2015,06,16,16,11,18.60
2015,06,16,16,12,18.60
2015,06,16,16,13,18.60
2015,06,16,16,14,18.60
2015,06,16,16,15,18.70
2015,06,16,16,16,18.70
2015,06,16,16,17,18.70
2015,06,16,16,18,18.80
2015,06,16,16,19,18.80
2015,06,16,16,20,18.90
2015,06,16,16,21,18.90
2015,06,16,16,22,18.90
2015,06,16,16,23,19.00
2015,06,16,16,24,19.00
2015,06,16,16,25,19.10
2015,06,16,16,26,19.10
2015,06,16,16,27,19.20
2015,06,16,16,28,19.20
2015,06,16,16,29,19.20
2015,06,16,16,30,19.20
2015,06,16,16,31,19.30
2015,06,16,16,32,19.30
2015,06,16,16,33,19.30
2015,06,16,16,34,19.30
2015,06,16,16,35,19.40
2015,06,16,16,36,19.40
2015,06,16,16,37,19.40
2015,06,16,16,38,19.40
2015,06,16,16,39,19.50
2015,06,16,16,40,19.50
2015,06,16,16,41,19.60
2015,06,16,16,42,19.60
2015,06,16,16,43,19.60
2015,06,16,16,44,19.70
2015,06,16,16,45,19.70
2015,06,16,16,46,19.80
2015,06,16,16,47,19.80
2015,06,16,16,48,19.90
2015,06,16,16,49,19.90
2015,06,16,16,50,19.90
2015,06,16,16,51,19.90
2015,06,16,16,52,19.80
2015,06,16,16,53,19.80
2015,06,16,16,54,19.80
2015,06,16,16,55,19.70
2015,06,16,16,56,19.70
2015,06,16,16,57,19.70
2015,06,16,16,58,19.70
2015,06,16,16,59,19.70
2015,06,16,17,00,19.70
2015,06,16,17,01,19.70
2015,06,16,17,02,19.70
2015,06,16,17,03,19.80
2015,06,16,17,04,19.80
2015,06,16,17,05,19.80
2015,06,16,17,06,19.80
2015,06,16,17,07,19.80
2015,06,16,17,08,19.80
2015,06,16,17,09,19.80
2015,06,16,17,10,19.70
2015,06,16,17,11,19.70
2015,06,16,17,12,19.70
2015,06,16,17,13,19.70
2015,06,16,17,14,19.70
2015,06,16,17,15,19.70
2015,06,16,17,16,19.70
2015,06,16,17,17,19.70
2015,06,16,17,18,19.70
2015,06,16,17,19,19.70